Back to catalog

STARLINK-37529

AliveCommunicationsSSO
NORAD 68918·PAYLOAD·🇺🇸 United States

Launched Apr 30, 2026 from Vandenberg Space Force Base

Loading…

Next Passes (next 24 hours)

TLE

FreshSource: CelesTrak SupGP

Epoch: Sep 14, 2026, 16:07 UTC

1 68918C 26097Z   26257.67201389 -.00070222  00000+0 -21810-2 0  2579
2 68918  97.2849  91.9698 0001993  87.7322 269.7778 15.33457004    15

Track STARLINK-37529 in real time with AllMySat

Download on the App Store